{"data":{"norad_id":58759,"intl_designator":"2024-009B","name":"YUNYAO-1 19","alt_names":[],"object_type":"PAYLOAD","status":"ACTIVE","operator":null,"country":"PRC","launch_date":"2024-01-11","launch_site_code":"YSLA","launch_vehicle":null,"mission":null,"orbit_class":"UNKNOWN","rcs_meters":null,"size_class":null,"mass_kg":null,"dimensions":null,"purposes":[],"wikipedia_slug":null,"has_3d_model":false,"image_url":null,"decayed_at":null,"tle_current":{"epoch":"2026-09-22T23:30:12.608640Z","epoch_age_seconds":35821,"freshness":"FRESH","line1":"1 58759U 24009B   26265.97931260  .00007123  00000+0  34527-3 0  9993","line2":"2 58759  49.9822  48.7517 0005063 314.3361  45.7177 15.19484819149530","mean_motion":15.19484819,"eccentricity":0.0005063,"inclination_deg":49.9822,"raan_deg":48.7517,"arg_perigee_deg":314.3361,"mean_anomaly_deg":45.7177,"bstar":0.00034527,"rev_number":14953,"period_min":94.768962611136,"perigee_km":503.91038761636,"apogee_km":510.88267887213,"semimajor_km":6885.5335332442,"source":"CELESTRAK","updated_at":"2026-09-23T09:00:18.961621Z"}}}